Location: Newark
(34.1333°N, 7.9667°W)
Time: 15:29:23
(UTC+00:00)

Transit 2A - Pass Details

Date: 21 June 2021
Orbit: 599 x 960 km, 66.7° (Epoch: 22 July)

Event Time Altitude Azimuth Distance (km) Brightness Sun altitude
Rises 03:35:07 0° 304° (NW) 3,208 9.1 -18.1°
Enters shadow 03:37:59 - 284° (WNW) 2,567 8.4 -17.7°
Reaches altitude 10° 03:39:36 10° 268° (W) 2,381 - -17.4°
Maximum altitude 03:40:50 11° 255° (WSW) 2,355 - -17.3°
Drops below altitude 10° 03:42:05 10° 242° (WSW) 2,434 - -17.1°
Sets 03:46:56 0° 207° (SSW) 3,463 - -16.4°
